Current weather by "City, St" or "zip code"  
 

Current Conditions: Smyrna, Smyrna Airport, TN

Fair


77.0 F

Last Updated on Apr 13 2024, 5:56 pm CDT
Humidity: 29%
Wind Speed: SW 4.6 mph
Barometer 30.12 in
Dewpoint: 42.1 F
Visibility: 10.00 mi
Precip: --
Heat Index: NA
Wind Chill: NA
Current conditions at:

Smyrna, Smyrna Airport, TN (KMQY)

Lat: 36.00889 Lon: 86.52

Local Radar Image active severe weather and emergency alerts image image weather storm and storm spotter reports image weather observation monitoring service image
Local
Radar
Active
Alerts
Storm Reports Obs
Monitoring

Sign-up For Email & Text Message Weather Alert Notification Services



Advertise Here

Observation History for Smyrna, Smyrna Airport, TN


Time Wind
(mph)
Vis
(mi)
Weather Precip (in) Temperature (F) Relative
Humidity
Wind
Chill
(F)
Heat
Index
(F)
Pressure
Air Dwpt altimeter
(in)
sea level
(mb)
Rmks
5:56 pm CDT SW 4.6 10.00 Fair -- 77.0 42.1 29% NA NA 30.12 1020.5
11:56 am CDT W 8.1 10.00 Fair -- 71.0 36.0 28% NA NA 30.27 1025.4
9:56 am CDT N 0.0 10.00 Fair -- 63.0 43.0 48% NA NA 30.28 1026.0
7:56 am CDT N 0.0 10.00 Fair -- 47.0 41.0 80% NA NA 30.27 1025.9
4:56 am CDT N 0.0 10.00 Fair -- 39.0 37.9 96% NA NA 30.22 1024.3
2:56 am CDT N 0.0 10.00 Fair -- 41.0 39.0 93% NA NA 30.20 1023.5
1:56 am CDT N 0.0 10.00 Fair -- 42.0 39.9 92% NA NA 30.19 1023.2
11:56 pm CDT N 0.0 10.00 Fair -- 45.0 39.9 83% NA NA 30.18 1022.8
10:56 pm CDT N 0.0 10.00 Fair -- 49.0 37.9 66% NA NA 30.17 1022.1
9:56 pm CDT SW 5.8 10.00 Fair -- 54.0 37.0 53% 53 NA 30.15 1021.7

Regional Weather Observation


Nashville, Nashville International Airport, TN (KBNA)

Fair
78.0 F

Smyrna, Smyrna Airport, TN (KMQY)

Fair
77.0 F

Lebanon Municipal Airport, TN (KM54)

NULL
75.0 F

Sumner County Regional Airport, TN (KXNX)

A Few Clouds
39.0 F

Springfield Robertson County Airport, TN (KM91)

Fair
75.0 F

Portland Municipal Airport, TN (K1M5)

Fair
73.0 F

Advertise Here


Advertise Here